Theta_e
325 326 326 326 326 326 326 325 325 324 325 324 324 323 322 322 319 305 303 312 317 326 320 305 302 302 301 297 297 293 286 283 284 285 287 292 290 292 293 294 297 299 300 305 312
325 325 326 326 326 326 325 325 324 324 324 323 322 322 321 322 307 299 312 323 324 324 306 302 299 300 295 295 295 290 284 284 288 287 287 292 290 291 291 290 291 297 303 308 311
325 325 325 325 325 325 326 324 324 324 324 322 322 321 322 317 301 299 320 322 323 318 308 304 302 298 293 293 292 290 285 289 291 293 294 292 291 292 289 289 292 294 301 306 306
325 325 325 324 325 325 325 324 324 324 323 322 321 321 321 308 291 302 320 320 319 311 305 301 297 292 290 289 293 288 292 292 294 295 293 291 292 291 291 292 292 295 302 305 305
325 325 324 324 324 324 324 324 323 324 323 321 321 321 310 298 296 309 317 312 308 307 303 300 296 292 288 290 291 289 291 294 295 295 294 294 292 291 292 294 294 297 303 304 304
325 324 324 324 324 324 324 323 323 322 324 320 320 319 302 294 308 310 307 306 305 304 301 301 297 297 292 291 289 291 293 293 293 292 293 292 290 290 292 292 293 297 299 302 303
325 324 324 323 323 323 323 323 322 322 321 317 319 310 297 296 307 306 305 303 304 303 299 302 301 296 294 290 294 292 288 289 289 292 291 291 288 289 293 291 292 293 297 300 301
325 324 323 323 323 322 322 321 320 319 318 317 318 302 293 306 305 304 304 301 304 304 303 303 301 299 294 294 292 289 286 284 288 292 292 290 285 291 291 290 291 293 296 299 301
325 324 323 323 322 321 321 320 319 317 318 316 303 298 293 309 300 303 303 300 301 301 302 305 299 293 293 288 285 286 281 282 286 291 291 288 286 290 289 290 291 291 293 297 299
324 323 322 322 321 320 319 317 316 315 310 307 306 299 299 295 300 302 302 302 299 298 297 295 291 288 287 286 281 282 281 283 282 287 287 285 286 290 291 290 289 289 289 292 297
323 322 322 321 321 320 310 306 303 303 302 297 296 294 297 300 302 299 303 300 297 293 288 290 288 284 284 286 286 284 282 281 283 287 285 285 286 290 290 289 288 287 288 288 292
323 322 322 322 321 316 305 298 298 298 295 300 300 296 298 299 293 296 301 294 292 287 288 289 285 288 290 288 286 284 282 282 285 286 287 286 285 288 287 287 287 287 287 288 289
322 321 321 321 318 308 302 300 305 302 292 297 297 294 295 298 293 295 298 293 289 287 287 284 287 291 288 286 284 283 282 281 283 287 285 283 282 283 286 286 287 287 288 288 289
321 321 321 317 312 306 302 306 307 304 287 291 295 296 298 298 293 300 299 293 290 287 287 286 289 288 286 285 286 282 286 286 286 281 277 283 276 282 284 284 286 287 287 288 288
321 321 321 315 308 305 304 306 304 299 280 293 294 301 299 294 294 296 300 295 289 288 289 288 287 286 286 286 287 285 288 285 284 279 277 278 274 280 281 282 284 286 288 288 288
320 321 318 313 306 306 305 303 300 288 280 288 293 292 293 294 295 296 296 297 294 290 287 288 289 288 287 289 288 289 284 282 280 278 271 276 275 278 280 281 284 287 288 289 289
320 321 317 313 310 305 302 301 289 281 293 290 290 291 291 291 293 292 291 290 288 285 283 286 286 288 290 284 287 285 280 275 272 269 273 278 275 280 282 283 285 287 288 289 291
318 319 315 310 309 305 306 297 286 288 289 293 291 291 290 292 292 290 287 286 288 287 282 280 279 285 288 284 282 282 281 275 268 269 273 278 275 280 283 286 287 289 289 291 291
314 309 308 309 307 307 303 290 290 292 294 292 290 288 288 292 290 287 286 287 290 289 284 281 281 286 287 287 286 282 279 281 277 272 269 275 278 282 284 286 285 288 290 290 291
309 307 306 308 309 307 298 293 295 298 297 295 289 291 287 289 287 286 286 289 288 290 287 284 280 284 286 288 287 283 285 277 277 268 268 272 273 277 280 283 285 286 288 291 292
307 301 304 308 308 300 291 293 297 301 299 294 293 291 291 291 289 287 290 290 289 287 286 284 282 280 284 282 282 282 280 279 279 277 269 267 275 281 282 283 284 285 289 291 292
305 292 303 306 294 296 293 295 299 299 300 296 295 295 293 291 291 292 291 293 291 290 285 286 281 278 281 284 284 283 281 280 279 274 273 272 274 285 285 285 286 287 289 290 293
298 296 303 301 288 290 292 293 295 295 296 295 294 294 295 293 289 292 293 295 292 291 289 288 282 279 279 280 281 281 281 281 280 279 275 271 277 284 284 285 286 286 289 291 292
296 287 294 296 294 292 290 290 291 294 294 296 294 295 293 292 294 291 291 293 289 289 296 294 285 281 279 278 280 278 280 282 282 276 278 279 281 284 285 284 286 287 288 289 292
297 290 291 286 289 291 291 290 289 290 293 294 291 292 291 288 289 289 291 292 293 294 293 291 283 283 283 282 282 281 282 283 281 281 278 282 280 285 287 285 287 287 288 288 290
292 291 292 287 288 289 290 288 288 289 289 288 287 289 289 288 289 285 288 287 285 289 290 290 283 282 279 282 283 282 284 284 284 283 282 283 282 290 291 289 285 286 287 288 290
297 299 294 290 287 286 286 287 287 290 291 292 290 289 287 289 292 292 293 293 292 287 287 286 284 280 277 279 279 277 280 282 283 285 284 280 285 289 284 285 284 284 286 286 287
Wind_Speed
13 14 16 17 17 18 18 18 18 16 14 12 12 12 12 13 7 6 6 5 9 15 10 6 4 7 4 4 4 3 6 1 2 4 3 3 4 1 2 2 1 2 3 5 3
13 14 16 17 17 17 17 17 18 17 15 12 10 10 10 10 2 8 3 14 14 11 5 7 6 7 4 3 3 6 4 4 2 2 1 3 1 4 5 3 3 3 2 4 3
12 13 15 16 17 18 18 18 17 16 13 11 9 9 10 5 1 3 12 15 13 8 1 0 1 2 4 2 3 1 3 2 2 2 2 2 3 2 2 5 8 6 4 5 4
14 15 16 17 18 18 18 18 17 15 12 9 9 9 7 1 1 3 14 14 10 3 2 2 4 4 4 3 2 3 2 3 3 0 1 3 2 5 5 9 1 6 5 7 8
15 16 17 19 20 19 19 18 18 16 11 7 8 9 2 4 0 5 15 12 4 3 5 2 5 1 4 1 1 1 2 3 2 5 5 3 7 7 9 11 6 3 6 9 7
14 15 16 17 19 20 19 18 19 17 8 5 6 5 3 2 4 6 8 6 6 5 5 5 3 2 4 1 1 2 3 6 4 3 3 3 3 1 5 2 3 6 8 8 7
14 15 16 18 19 21 21 20 19 14 5 3 3 2 5 3 3 6 7 1 4 3 3 2 2 2 2 1 2 1 5 6 3 2 3 1 6 8 5 7 8 6 6 6 7
13 14 16 17 19 21 23 23 18 6 2 3 4 1 2 2 2 4 7 3 5 3 2 1 2 5 3 2 6 5 5 5 3 4 4 4 8 7 6 4 8 6 7 7 9
12 14 15 18 20 23 23 23 10 2 2 3 2 1 1 4 4 4 3 3 5 3 1 1 2 3 4 4 5 6 2 2 9 5 4 3 10 7 2 2 7 7 7 7 7
11 12 15 17 20 24 25 16 7 1 3 1 2 3 5 4 5 5 3 3 2 2 3 5 5 4 4 6 3 3 3 4 5 4 3 2 19 14 10 7 11 9 9 8 7
9 10 11 15 18 22 12 5 8 5 10 3 3 3 4 8 3 2 4 5 3 6 3 4 6 1 2 2 2 1 3 5 5 3 3 4 12 25 6 6 8 7 9 8 8
9 10 12 13 15 14 4 6 3 2 9 2 3 3 3 1 4 4 6 4 5 3 4 6 2 2 2 1 1 2 3 6 6 2 2 6 18 12 4 1 2 5 6 9 7
7 9 10 13 14 5 3 2 1 1 3 5 2 2 2 2 1 5 5 2 5 3 5 1 0 1 1 1 1 3 4 2 4 7 2 6 9 4 3 3 2 1 5 6 9
7 6 7 13 4 3 3 2 2 2 5 6 4 3 3 1 1 1 2 2 3 1 1 3 2 2 1 3 3 4 1 2 5 5 3 5 7 9 5 7 7 9 9 9 8
8 7 1 6 2 2 1 2 3 2 5 4 3 3 4 3 4 3 3 2 2 1 4 3 3 2 1 2 2 4 1 3 1 2 5 3 4 10 5 4 7 9 11 10 9
10 9 8 3 2 2 3 2 2 7 8 2 1 2 4 2 2 3 3 4 0 2 1 5 2 2 3 2 0 3 1 4 4 2 3 2 4 8 3 3 8 7 10 10 10
8 10 9 4 2 5 3 3 6 4 3 2 2 1 2 2 2 2 4 4 2 6 3 3 2 1 2 1 2 4 5 5 8 6 5 1 1 11 4 3 3 8 11 10 9
3 7 4 4 5 5 1 4 5 4 5 2 3 2 2 0 2 1 1 3 2 3 2 1 8 3 1 2 3 2 4 7 6 3 6 2 7 7 4 2 4 6 7 8 9
4 2 1 1 5 4 3 5 10 8 4 5 2 3 3 2 2 2 4 5 6 9 8 6 6 0 0 1 2 2 1 3 2 0 2 4 8 9 4 4 2 5 7 7 7
2 1 1 3 2 4 4 8 7 7 6 3 5 6 7 5 3 2 3 2 4 6 1 4 4 2 2 2 3 3 6 4 2 2 6 5 5 8 2 4 3 4 7 8 6
2 1 2 0 1 1 6 7 5 5 8 8 6 8 7 6 6 5 5 2 3 0 1 3 3 2 3 6 8 2 2 2 4 4 5 3 7 6 4 3 4 5 4 5 6
2 3 2 2 2 3 5 5 4 3 2 4 4 7 5 4 5 8 9 9 4 8 5 5 4 4 9 2 2 2 7 7 5 6 4 2 10 4 5 4 4 7 4 3 4
3 1 1 1 4 4 1 1 4 6 6 5 8 8 5 7 5 5 4 2 4 5 4 3 3 3 5 1 2 5 6 5 4 2 6 4 9 1 2 4 5 6 7 5 4
3 2 1 2 0 3 8 6 10 4 3 5 4 3 3 6 8 4 6 2 1 3 4 3 3 7 11 3 3 5 7 8 9 4 7 14 23 11 7 6 6 7 8 8 7
3 3 5 3 5 10 1 3 2 6 3 3 4 9 7 5 6 6 4 3 2 4 3 1 6 6 8 6 5 6 6 11 11 14 10 21 12 17 13 7 7 8 9 7 8
4 3 3 2 2 12 13 10 12 7 5 4 3 6 5 8 9 6 5 4 6 3 6 5 4 3 5 8 12 18 16 15 18 16 17 23 23 23 16 9 7 9 9 9 10
3 2 3 5 5 7 8 17 16 10 6 13 11 5 7 14 11 6 4 7 5 4 6 4 3 2 11 4 6 13 16 18 14 14 15 18 25 15 7 6 4 6 4 2 3
Wind_Direction
10 7 4 1 359 358 354 351 349 347 344 339 340 344 350 344 343 34 44 284 327 329 343 314 22 354 28 64 56 110 63 142 217 159 277 352 10 271 328 287 315 305 291 326 92
7 4 2 358 353 352 351 348 345 343 340 338 336 337 340 341 57 56 299 338 336 345 20 26 8 356 43 40 31 76 90 221 220 214 307 320 270 326 356 314 275 314 327 17 58
1 359 355 353 353 350 349 344 340 340 336 332 333 331 333 332 87 344 338 340 339 348 171 100 265 61 65 13 10 139 136 197 307 237 214 303 304 268 260 277 229 223 217 170 175
352 353 351 348 347 346 345 342 336 335 335 328 326 327 333 317 326 295 337 334 338 342 81 5 23 51 71 51 332 94 190 184 250 248 223 233 283 293 200 231 8 248 206 171 187
349 349 347 345 343 341 342 342 337 336 323 322 330 337 349 55 123 321 338 335 343 39 62 59 57 68 132 204 355 110 313 297 271 290 266 316 243 233 255 251 256 271 184 196 196
346 344 342 340 338 337 339 339 337 336 313 312 330 342 336 78 318 330 343 345 7 20 26 31 128 141 92 57 76 326 286 279 302 297 281 265 286 342 275 351 287 206 218 211 203
340 339 339 338 335 333 334 337 337 331 302 288 329 67 58 180 317 334 359 66 355 6 52 48 77 37 134 85 334 324 333 342 38 320 245 193 300 236 279 323 288 243 247 221 211
334 336 337 335 331 332 332 331 329 313 292 328 351 52 105 303 297 13 339 350 6 22 61 169 89 110 59 322 13 34 51 12 290 349 21 27 284 297 334 349 307 274 242 223 214
334 335 334 334 333 331 328 323 324 316 327 0 330 69 108 329 28 316 2 353 312 332 172 116 67 84 35 69 16 7 277 323 323 33 342 75 276 269 3 333 284 272 272 252 242
328 332 333 335 332 330 327 320 330 19 360 35 44 23 10 316 302 328 319 0 4 321 10 49 53 70 40 59 235 294 333 315 243 292 325 267 272 264 256 267 247 254 249 245 234
320 325 332 331 334 332 342 1 11 348 39 129 248 263 292 299 271 318 20 358 339 40 46 5 59 100 185 172 153 188 239 246 257 292 267 251 283 286 314 256 288 272 273 270 253
311 321 326 330 335 338 19 52 58 242 313 223 236 253 231 342 318 2 8 47 32 11 343 15 94 178 154 141 178 220 283 282 296 258 287 327 286 302 327 252 352 338 318 263 232
290 309 324 327 328 40 71 83 186 31 265 295 258 248 253 14 4 322 27 39 48 25 20 133 36 13 85 297 276 242 218 269 260 329 321 308 291 325 320 9 15 0 277 290 245
250 280 319 325 24 323 45 135 128 82 42 305 346 12 1 8 328 340 52 85 40 42 333 227 334 33 344 291 119 305 191 291 306 26 292 25 285 310 353 312 351 339 341 333 321
225 226 177 64 273 8 242 128 100 20 360 289 331 283 342 356 343 16 359 351 115 34 68 287 12 343 267 246 172 232 333 314 347 89 24 0 59 272 344 313 324 325 339 334 325
217 207 145 139 105 198 132 110 61 42 263 359 335 18 358 34 349 330 357 34 322 115 78 247 270 210 211 107 96 334 20 55 54 81 24 231 131 283 273 312 311 320 325 327 332
219 189 156 142 187 135 124 32 34 157 343 296 287 88 105 265 318 21 349 320 251 7 334 318 229 218 179 96 51 74 53 335 348 5 237 74 47 249 267 269 264 304 314 327 335
257 176 160 139 134 134 106 71 185 235 242 10 16 25 292 169 247 196 167 270 236 93 106 155 327 185 177 155 142 94 135 153 236 260 273 321 238 248 207 276 267 285 307 328 346
93 7 120 86 123 117 155 190 192 196 190 168 111 171 273 278 236 299 226 224 224 172 178 159 256 177 120 96 120 154 139 138 99 208 27 242 295 299 218 269 319 335 338 341 345
90 319 50 345 140 113 207 218 208 190 144 159 169 184 201 217 209 222 234 216 269 207 169 211 289 160 177 133 25 161 163 80 24 259 267 286 266 247 291 241 278 329 333 332 345
145 188 34 159 275 191 210 208 203 195 146 180 208 261 208 202 201 206 220 296 245 304 165 146 175 250 114 198 180 144 216 69 136 169 200 294 254 206 234 232 267 289 303 315 328
204 201 99 284 205 227 221 189 153 214 142 202 150 187 225 225 237 228 225 202 161 153 199 218 174 233 215 10 26 160 192 167 161 232 243 192 267 229 226 245 249 264 258 291 299
254 193 147 246 232 209 275 237 235 183 193 171 213 202 178 209 243 232 202 350 145 180 186 212 230 295 300 57 102 201 200 186 104 85 200 211 265 112 294 290 268 263 265 247 231
156 230 190 191 322 231 255 260 249 241 239 174 200 107 177 202 201 227 222 181 158 199 129 174 219 206 247 234 120 200 188 191 189 167 253 230 267 271 264 247 278 277 258 247 232
250 216 176 195 202 213 196 11 268 219 225 221 207 210 183 232 217 223 217 229 215 168 43 160 242 220 253 267 266 241 212 184 196 219 209 269 241 264 265 263 256 252 261 231 235
269 215 173 153 186 205 208 217 246 248 148 258 242 219 226 244 239 221 194 189 213 171 175 183 274 206 264 235 253 264 249 230 232 239 241 250 269 261 284 291 285 283 280 243 226
217 253 300 185 185 189 203 213 220 219 240 252 244 224 213 230 234 246 201 153 186 204 215 221 201 201 271 215 278 269 237 217 224 227 224 240 246 282 279 268 292 323 320 327 11